Location: Shepherdstown, WV
(39.4326°N, 77.8042°W)
Time: 06:17:48
(UTC-04:00)

SR - Pass Details

Date: 04 August 2021
Orbit: 581 x 874 km, 66.7° (Epoch: 24 September)

Event Time Altitude Azimuth Distance (km) Brightness Sun altitude
Rises 15:59:03 0° 324° (NW) 3,036 ? 48.4°
Reaches altitude 10° 16:01:33 10° 317° (NW) 2,071 ? 48.0°
Maximum altitude 16:05:52 40° 248° (WSW) 926 ? 47.2°
Drops below altitude 10° 16:09:56 10° 179° (S) 1,933 ? 46.4°
Sets 16:12:12 0° 172° (S) 2,808 ? 46.0°
